Wetterdaten: Woche 30.01.23 - 05.02.23 (KW5)
Datum Zeit Temp. I. Temp. A. Feuchte I. Feuchte A. Luftdruck Regen Wind Richtung Sonnenschein Solar Taupunkt Windchill Windböen
30.01.2023 00:00 21,7 °C -0,3 °C 49 % 82 % 1017,3 hPa 0,0 l/m² 20,7 km/h (4 Bft) S-SW 0,00 h 0 W/m² -2,9 °C -10,3 °C 26,7 km/h (4 Bft)
30.01.2023 01:00 21,6 °C -0,0 °C 49 % 83 % 1016,4 hPa 0,0 l/m² 17,4 km/h (3 Bft) SW 0,00 h 0 W/m² -2,5 °C -8,2 °C 23,0 km/h (4 Bft)
30.01.2023 02:00 21,6 °C 0,5 °C 49 % 84 % 1015,0 hPa 0,0 l/m² 17,9 km/h (3 Bft) S-SW 0,00 h 0 W/m² -1,9 °C -7,8 °C 23,2 km/h (4 Bft)
30.01.2023 03:00 21,7 °C 1,0 °C 49 % 84 % 1013,8 hPa 0,0 l/m² 18,8 km/h (3 Bft) SW 0,00 h 0 W/m² -1,4 °C -7,6 °C 24,8 km/h (4 Bft)
30.01.2023 04:00 21,7 °C 1,3 °C 48 % 84 % 1012,8 hPa 0,0 l/m² 22,3 km/h (4 Bft) SW 0,00 h 0 W/m² -1,1 °C -8,9 °C 30,1 km/h (5 Bft)
30.01.2023 05:00 21,8 °C 1,5 °C 49 % 85 % 1011,4 hPa 0,0 l/m² 26,3 km/h (4 Bft) SW 0,00 h 0 W/m² -0,8 °C -10,0 °C 36,0 km/h (5 Bft)
30.01.2023 06:00 21,8 °C 1,7 °C 47 % 87 % 1010,4 hPa 0,0 l/m² 29,9 km/h (5 Bft) SW 0,00 h 0 W/m² -0,3 °C -10,9 °C 41,8 km/h (6 Bft)
30.01.2023 07:00 21,6 °C 1,9 °C 46 % 89 % 1010,2 hPa 0,0 l/m² 31,6 km/h (5 Bft) SW 0,00 h 0 W/m² 0,3 °C -11,1 °C 43,5 km/h (6 Bft)
30.01.2023 08:00 21,6 °C 2,3 °C 46 % 89 % 1010,2 hPa 0,0 l/m² 27,3 km/h (5 Bft) SW 0,00 h 23 W/m² 0,7 °C -9,3 °C 37,6 km/h (5 Bft)
30.01.2023 09:00 21,6 °C 2,6 °C 46 % 90 % 1010,2 hPa 0,0 l/m² 25,6 km/h (4 Bft) SW 0,42 h 67 W/m² 1,1 °C -8,3 °C 34,8 km/h (5 Bft)
30.01.2023 10:00 21,7 °C 3,3 °C 46 % 89 % 1010,2 hPa 0,0 l/m² 25,9 km/h (4 Bft) SW 0,98 h 116 W/m² 1,6 °C -7,5 °C 35,2 km/h (5 Bft)
30.01.2023 11:00 21,8 °C 4,0 °C 45 % 88 % 1010,2 hPa 0,0 l/m² 23,1 km/h (4 Bft) SW 1,02 h 223 W/m² 2,2 °C -5,6 °C 32,2 km/h (5 Bft)
30.01.2023 12:00 22,2 °C 5,6 °C 45 % 85 % 1009,7 hPa 0,0 l/m² 23,6 km/h (4 Bft) W-SW 0,98 h 341 W/m² 3,2 °C -3,6 °C 32,7 km/h (5 Bft)
30.01.2023 13:00 22,6 °C 6,5 °C 45 % 81 % 1008,8 hPa 0,0 l/m² 22,8 km/h (4 Bft) SW 1,02 h 326 W/m² 3,5 °C -2,2 °C 30,7 km/h (5 Bft)
30.01.2023 14:00 22,6 °C 6,5 °C 45 % 78 % 1008,5 hPa 0,0 l/m² 25,3 km/h (4 Bft) SW 0,97 h 218 W/m² 3,0 °C -3,0 °C 33,0 km/h (5 Bft)
30.01.2023 15:00 22,3 °C 5,2 °C 45 % 83 % 1009,6 hPa 0,2 l/m² 25,3 km/h (4 Bft) W-SW 0,58 h 57 W/m² 2,6 °C -4,7 °C 34,5 km/h (5 Bft)
30.01.2023 16:00 22,1 °C 4,6 °C 46 % 85 % 1010,4 hPa 0,0 l/m² 23,3 km/h (4 Bft) W-SW 0,10 h 28 W/m² 2,2 °C -4,9 °C 30,0 km/h (5 Bft)
30.01.2023 17:00 22,0 °C 5,1 °C 46 % 79 % 1011,3 hPa 0,0 l/m² 25,5 km/h (4 Bft) W 0,00 h 0 W/m² 1,8 °C -4,9 °C 36,1 km/h (5 Bft)
30.01.2023 18:00 21,9 °C 5,5 °C 46 % 78 % 1012,5 hPa 0,0 l/m² 30,4 km/h (5 Bft) W 0,00 h 0 W/m² 1,9 °C -5,6 °C 42,8 km/h (6 Bft)
30.01.2023 19:00 21,9 °C 5,2 °C 47 % 80 % 1013,7 hPa 0,0 l/m² 31,1 km/h (5 Bft) W 0,00 h 0 W/m² 2,1 °C -6,4 °C 43,3 km/h (6 Bft)
30.01.2023 20:00 21,9 °C 4,9 °C 48 % 81 % 1014,7 hPa 0,0 l/m² 27,4 km/h (5 Bft) W 0,00 h 0 W/m² 2,0 °C -5,7 °C 38,2 km/h (6 Bft)
30.01.2023 21:00 22,1 °C 5,1 °C 49 % 79 % 1015,6 hPa 0,0 l/m² 24,3 km/h (4 Bft) W 0,00 h 0 W/m² 1,8 °C -4,4 °C 33,3 km/h (5 Bft)
30.01.2023 22:00 21,9 °C 4,7 °C 48 % 82 % 1016,5 hPa 0,0 l/m² 20,5 km/h (4 Bft) W 0,00 h 0 W/m² 1,9 °C -3,4 °C 29,2 km/h (5 Bft)
30.01.2023 23:00 21,7 °C 4,7 °C 48 % 82 % 1017,1 hPa 0,0 l/m² 20,0 km/h (4 Bft) W 0,00 h 0 W/m² 2,0 °C -3,3 °C 27,9 km/h (5 Bft)
31.01.2023 00:00 21,6 °C 4,3 °C 48 % 84 % 1017,6 hPa 0,2 l/m² 20,3 km/h (4 Bft) W 0,00 h 0 W/m² 1,8 °C -4,0 °C 28,6 km/h (5 Bft)
31.01.2023 01:00 21,5 °C 3,9 °C 48 % 84 % 1018,2 hPa 0,0 l/m² 21,0 km/h (4 Bft) W 0,00 h 0 W/m² 1,4 °C -4,9 °C 29,9 km/h (5 Bft)
31.01.2023 02:00 21,5 °C 4,0 °C 48 % 83 % 1018,8 hPa 0,0 l/m² 18,1 km/h (3 Bft) W 0,00 h 0 W/m² 1,4 °C -3,6 °C 24,5 km/h (4 Bft)
31.01.2023 03:00 21,4 °C 3,9 °C 48 % 82 % 1019,4 hPa 0,0 l/m² 16,6 km/h (3 Bft) W 0,00 h 0 W/m² 1,0 °C -2,9 °C 21,6 km/h (4 Bft)
31.01.2023 04:00 21,3 °C 3,5 °C 48 % 84 % 1019,9 hPa 0,0 l/m² 14,2 km/h (3 Bft) W-SW 0,00 h 0 W/m² 1,0 °C -2,2 °C 18,0 km/h (3 Bft)
31.01.2023 05:00 21,5 °C 2,9 °C 48 % 86 % 1019,9 hPa 0,0 l/m² 15,0 km/h (3 Bft) SW 0,00 h 0 W/m² 0,7 °C -3,4 °C 20,5 km/h (4 Bft)
31.01.2023 06:00 21,6 °C 3,0 °C 48 % 88 % 1020,0 hPa 0,0 l/m² 15,7 km/h (3 Bft) SW 0,00 h 0 W/m² 1,2 °C -3,7 °C 23,1 km/h (4 Bft)
31.01.2023 07:00 21,6 °C 3,3 °C 46 % 87 % 1020,4 hPa 0,0 l/m² 17,7 km/h (3 Bft) SW 0,00 h 5 W/m² 1,3 °C -4,3 °C 24,7 km/h (4 Bft)
31.01.2023 08:00 21,5 °C 3,4 °C 46 % 85 % 1020,4 hPa 0,0 l/m² 17,5 km/h (3 Bft) SW 0,07 h 22 W/m² 1,1 °C -4,2 °C 24,9 km/h (4 Bft)
31.01.2023 09:00 21,5 °C 3,9 °C 46 % 84 % 1019,9 hPa 0,0 l/m² 18,4 km/h (3 Bft) SW 0,67 h 64 W/m² 1,5 °C -3,8 °C 26,0 km/h (4 Bft)
31.01.2023 10:00 21,6 °C 4,5 °C 46 % 82 % 1019,3 hPa 0,0 l/m² 20,6 km/h (4 Bft) SW 1,00 h 101 W/m² 1,7 °C -3,9 °C 27,4 km/h (5 Bft)
31.01.2023 11:00 21,6 °C 5,1 °C 46 % 81 % 1018,6 hPa 0,0 l/m² 20,6 km/h (4 Bft) SW 0,82 h 87 W/m² 2,0 °C -3,2 °C 28,2 km/h (5 Bft)
31.01.2023 12:00 21,5 °C 5,1 °C 46 % 82 % 1017,1 hPa 0,0 l/m² 19,4 km/h (3 Bft) SW 0,17 h 42 W/m² 2,2 °C -2,7 °C 26,8 km/h (4 Bft)
31.01.2023 13:00 21,5 °C 5,4 °C 46 % 82 % 1015,8 hPa 0,0 l/m² 26,8 km/h (4 Bft) SW 0,80 h 92 W/m² 2,5 °C -4,9 °C 37,6 km/h (5 Bft)
31.01.2023 14:00 21,6 °C 5,3 °C 46 % 83 % 1015,3 hPa 0,0 l/m² 27,9 km/h (5 Bft) SW 0,67 h 60 W/m² 2,7 °C -5,4 °C 38,9 km/h (6 Bft)
31.01.2023 15:00 21,5 °C 5,0 °C 46 % 85 % 1015,1 hPa 0,0 l/m² 25,4 km/h (4 Bft) SW 0,07 h 31 W/m² 2,7 °C -5,0 °C 35,1 km/h (5 Bft)
31.01.2023 16:00 21,4 °C 5,0 °C 46 % 85 % 1014,9 hPa 0,0 l/m² 24,5 km/h (4 Bft) SW 0,00 h 13 W/m² 2,8 °C -4,7 °C 34,8 km/h (5 Bft)
31.01.2023 17:00 21,5 °C 5,0 °C 46 % 86 % 1015,0 hPa 0,0 l/m² 24,3 km/h (4 Bft) SW 0,00 h 0 W/m² 2,8 °C -4,7 °C 33,3 km/h (5 Bft)
31.01.2023 18:00 21,6 °C 4,6 °C 47 % 87 % 1014,9 hPa 0,0 l/m² 22,4 km/h (4 Bft) SW 0,00 h 0 W/m² 2,6 °C -4,5 °C 30,3 km/h (5 Bft)
31.01.2023 19:00 21,6 °C 4,8 °C 49 % 87 % 1014,5 hPa 0,0 l/m² 21,6 km/h (4 Bft) SW 0,00 h 0 W/m² 2,9 °C -4,0 °C 29,2 km/h (5 Bft)
31.01.2023 20:00 21,6 °C 5,0 °C 49 % 89 % 1014,8 hPa 0,0 l/m² 19,1 km/h (3 Bft) SW 0,00 h 0 W/m² 3,3 °C -2,7 °C 26,5 km/h (4 Bft)
31.01.2023 21:00 21,8 °C 4,4 °C 49 % 89 % 1015,0 hPa 0,0 l/m² 10,1 km/h (2 Bft) SW 0,00 h 0 W/m² 2,7 °C 1,6 °C 13,7 km/h (3 Bft)
31.01.2023 22:00 21,8 °C 3,7 °C 49 % 87 % 1015,3 hPa 0,0 l/m² 14,0 km/h (3 Bft) W-SW 0,00 h 0 W/m² 1,6 °C -1,5 °C 17,6 km/h (3 Bft)
31.01.2023 23:00 21,5 °C 3,1 °C 49 % 85 % 1015,1 hPa 0,0 l/m² 11,3 km/h (2 Bft) W-SW 0,00 h 0 W/m² 0,8 °C -0,9 °C 14,3 km/h (3 Bft)
01.02.2023 00:00 21,3 °C 2,9 °C 49 % 85 % 1015,2 hPa 0,0 l/m² 12,5 km/h (2 Bft) W-SW 0,00 h 0 W/m² 0,7 °C -2,0 °C 15,9 km/h (3 Bft)
01.02.2023 01:00 21,3 °C 3,3 °C 49 % 84 % 1015,2 hPa 0,0 l/m² 13,2 km/h (3 Bft) SW 0,00 h 0 W/m² 0,9 °C -1,9 °C 17,8 km/h (3 Bft)
01.02.2023 02:00 21,3 °C 3,5 °C 49 % 84 % 1015,0 hPa 0,0 l/m² 16,2 km/h (3 Bft) SW 0,00 h 0 W/m² 1,1 °C -3,3 °C 22,2 km/h (4 Bft)
01.02.2023 03:00 21,2 °C 3,6 °C 49 % 85 % 1014,5 hPa 0,0 l/m² 17,4 km/h (3 Bft) SW 0,00 h 0 W/m² 1,3 °C -3,8 °C 23,1 km/h (4 Bft)
01.02.2023 04:00 21,2 °C 4,0 °C 49 % 84 % 1014,2 hPa 0,0 l/m² 18,5 km/h (3 Bft) SW 0,00 h 0 W/m² 1,5 °C -3,8 °C 25,0 km/h (4 Bft)
01.02.2023 05:00 21,2 °C 4,2 °C 49 % 83 % 1013,6 hPa 0,0 l/m² 18,5 km/h (3 Bft) SW 0,00 h 0 W/m² 1,6 °C -3,5 °C 25,0 km/h (4 Bft)
01.02.2023 06:00 21,4 °C 3,5 °C 48 % 83 % 1013,2 hPa 0,0 l/m² 16,0 km/h (3 Bft) SW 0,00 h 0 W/m² 1,0 °C -3,2 °C 22,1 km/h (4 Bft)
01.02.2023 07:00 21,3 °C 3,7 °C 47 % 84 % 1012,7 hPa 0,0 l/m² 17,2 km/h (3 Bft) SW 0,00 h 7 W/m² 1,3 °C -3,5 °C 24,5 km/h (4 Bft)
01.02.2023 08:00 21,3 °C 4,2 °C 47 % 84 % 1012,4 hPa 0,0 l/m² 17,2 km/h (3 Bft) SW 0,00 h 26 W/m² 1,8 °C -2,8 °C 24,0 km/h (4 Bft)
01.02.2023 09:00 21,3 °C 4,3 °C 47 % 87 % 1012,6 hPa 0,6 l/m² 26,0 km/h (4 Bft) SW 0,00 h 32 W/m² 2,3 °C -6,2 °C 35,7 km/h (5 Bft)
01.02.2023 10:00 21,3 °C 4,6 °C 47 % 89 % 1012,9 hPa 0,0 l/m² 23,4 km/h (4 Bft) SW 0,90 h 124 W/m² 2,9 °C -4,9 °C 31,8 km/h (5 Bft)
01.02.2023 11:00 21,7 °C 6,6 °C 46 % 83 % 1013,0 hPa 0,0 l/m² 25,1 km/h (4 Bft) W-SW 0,98 h 282 W/m² 3,8 °C -2,7 °C 34,6 km/h (5 Bft)
01.02.2023 12:00 22,0 °C 7,0 °C 46 % 79 % 1013,0 hPa 0,0 l/m² 26,1 km/h (4 Bft) W-SW 1,00 h 236 W/m² 3,6 °C -2,5 °C 34,4 km/h (5 Bft)
01.02.2023 13:00 21,9 °C 7,4 °C 46 % 73 % 1012,4 hPa 0,0 l/m² 29,6 km/h (5 Bft) W-SW 1,02 h 172 W/m² 3,0 °C -2,7 °C 39,9 km/h (6 Bft)
01.02.2023 14:00 21,8 °C 7,1 °C 46 % 73 % 1011,4 hPa 0,0 l/m² 27,7 km/h (5 Bft) W-SW 1,00 h 185 W/m² 2,6 °C -2,7 °C 37,8 km/h (5 Bft)
01.02.2023 15:00 21,9 °C 7,2 °C 46 % 74 % 1010,6 hPa 0,0 l/m² 30,6 km/h (5 Bft) SW 1,00 h 130 W/m² 2,7 °C -3,3 °C 41,9 km/h (6 Bft)
01.02.2023 16:00 21,8 °C 4,7 °C 46 % 82 % 1011,4 hPa 1,8 l/m² 28,6 km/h (5 Bft) W-SW 0,02 h 16 W/m² 2,0 °C -6,2 °C 40,1 km/h (6 Bft)
01.02.2023 17:00 21,6 °C 2,7 °C 45 % 89 % 1011,6 hPa 0,0 l/m² 25,6 km/h (4 Bft) W 0,00 h 0 W/m² 1,1 °C -8,0 °C 36,1 km/h (5 Bft)
01.02.2023 18:00 21,6 °C 3,3 °C 47 % 85 % 1012,1 hPa 0,0 l/m² 16,7 km/h (3 Bft) W-SW 0,00 h 0 W/m² 1,0 °C -3,8 °C 22,6 km/h (4 Bft)
01.02.2023 19:00 21,5 °C 2,9 °C 48 % 85 % 1012,5 hPa 0,0 l/m² 15,3 km/h (3 Bft) SW 0,00 h 0 W/m² 0,6 °C -3,4 °C 19,5 km/h (3 Bft)
01.02.2023 20:00 21,4 °C 3,1 °C 48 % 86 % 1012,8 hPa 0,2 l/m² 17,5 km/h (3 Bft) W-SW 0,00 h 0 W/m² 1,0 °C -4,1 °C 23,7 km/h (4 Bft)
01.02.2023 21:00 21,6 °C 3,6 °C 49 % 87 % 1013,5 hPa 0,8 l/m² 11,0 km/h (2 Bft) SW 0,00 h 0 W/m² 1,6 °C 0,3 °C 17,3 km/h (3 Bft)
01.02.2023 22:00 21,7 °C 3,1 °C 49 % 88 % 1013,3 hPa 0,2 l/m² 19,0 km/h (3 Bft) W-SW 0,00 h 0 W/m² 1,3 °C -4,9 °C 25,7 km/h (4 Bft)
01.02.2023 23:00 21,6 °C 3,1 °C 49 % 86 % 1013,5 hPa 0,4 l/m² 21,8 km/h (4 Bft) W-SW 0,00 h 0 W/m² 1,0 °C -5,8 °C 29,6 km/h (5 Bft)
02.02.2023 00:00 21,4 °C 3,5 °C 49 % 87 % 1013,8 hPa 0,0 l/m² 21,5 km/h (4 Bft) W-SW 0,00 h 0 W/m² 1,5 °C -5,4 °C 29,4 km/h (5 Bft)
02.02.2023 01:00 21,5 °C 2,9 °C 49 % 85 % 1013,7 hPa 0,0 l/m² 14,1 km/h (3 Bft) SW 0,00 h 0 W/m² 0,7 °C -2,6 °C 18,9 km/h (3 Bft)
02.02.2023 02:00 21,4 °C 2,8 °C 49 % 82 % 1013,8 hPa 0,0 l/m² 11,9 km/h (2 Bft) SW 0,00 h 0 W/m² -0,0 °C -1,7 °C 17,1 km/h (3 Bft)
02.02.2023 03:00 21,4 °C 3,9 °C 49 % 77 % 1013,8 hPa 0,0 l/m² 24,7 km/h (4 Bft) W-SW 0,00 h 0 W/m² 0,3 °C -6,0 °C 35,8 km/h (5 Bft)
02.02.2023 04:00 21,4 °C 4,6 °C 49 % 74 % 1014,2 hPa 0,0 l/m² 25,1 km/h (4 Bft) W 0,00 h 0 W/m² 0,5 °C -5,3 °C 35,0 km/h (5 Bft)
02.02.2023 05:00 21,4 °C 4,8 °C 49 % 76 % 1014,8 hPa 0,0 l/m² 26,4 km/h (4 Bft) W 0,00 h 0 W/m² 1,0 °C -5,7 °C 38,4 km/h (6 Bft)
02.02.2023 06:00 21,4 °C 4,8 °C 49 % 78 % 1015,3 hPa 0,0 l/m² 27,9 km/h (5 Bft) W 0,00 h 0 W/m² 1,2 °C -6,1 °C 39,7 km/h (6 Bft)
02.02.2023 07:00 21,3 °C 4,6 °C 47 % 79 % 1016,0 hPa 0,0 l/m² 24,7 km/h (4 Bft) W 0,00 h 7 W/m² 1,4 °C -5,3 °C 34,6 km/h (5 Bft)
02.02.2023 08:00 21,3 °C 4,6 °C 47 % 81 % 1016,8 hPa 0,0 l/m² 19,7 km/h (3 Bft) W 0,27 h 35 W/m² 1,6 °C -3,5 °C 27,1 km/h (5 Bft)
02.02.2023 09:00 21,4 °C 5,1 °C 47 % 81 % 1017,7 hPa 0,0 l/m² 19,3 km/h (3 Bft) W 1,00 h 107 W/m² 2,2 °C -2,7 °C 27,4 km/h (5 Bft)
02.02.2023 10:00 21,5 °C 6,1 °C 47 % 80 % 1018,1 hPa 0,0 l/m² 23,4 km/h (4 Bft) W 0,98 h 171 W/m² 2,9 °C -2,9 °C 32,5 km/h (5 Bft)
02.02.2023 11:00 22,1 °C 6,9 °C 46 % 79 % 1018,5 hPa 0,0 l/m² 25,8 km/h (4 Bft) W 1,02 h 288 W/m² 3,4 °C -2,6 °C 36,7 km/h (5 Bft)
02.02.2023 12:00 22,2 °C 7,3 °C 46 % 77 % 1019,1 hPa 0,0 l/m² 23,9 km/h (4 Bft) W 0,98 h 276 W/m² 3,5 °C -1,4 °C 34,9 km/h (5 Bft)
02.02.2023 13:00 22,1 °C 6,5 °C 46 % 78 % 1019,5 hPa 0,0 l/m² 19,7 km/h (3 Bft) W 1,02 h 142 W/m² 2,9 °C -1,1 °C 29,0 km/h (5 Bft)
02.02.2023 14:00 22,0 °C 6,4 °C 46 % 82 % 1020,3 hPa 0,0 l/m² 16,8 km/h (3 Bft) W 1,00 h 174 W/m² 3,4 °C -0,0 °C 23,1 km/h (4 Bft)
02.02.2023 15:00 22,1 °C 6,7 °C 46 % 81 % 1020,8 hPa 0,0 l/m² 13,4 km/h (3 Bft) W 0,67 h 120 W/m² 3,6 °C 2,0 °C 18,3 km/h (3 Bft)
02.02.2023 16:00 21,8 °C 5,3 °C 45 % 83 % 1021,8 hPa 0,0 l/m² 8,6 km/h (2 Bft) W-SW 0,00 h 25 W/m² 2,7 °C 3,3 °C 12,8 km/h (3 Bft)
02.02.2023 17:00 21,7 °C 4,1 °C 45 % 88 % 1023,0 hPa 0,0 l/m² 3,3 km/h (1 Bft) W-SW 0,00 h 0 W/m² 2,3 °C 4,0 °C 5,4 km/h (2 Bft)
02.02.2023 18:00 21,5 °C 3,2 °C 44 % 88 % 1023,7 hPa 0,0 l/m² 3,8 km/h (1 Bft) W 0,00 h 0 W/m² 1,4 °C 3,2 °C 5,5 km/h (2 Bft)
02.02.2023 19:00 21,4 °C 2,7 °C 45 % 90 % 1023,9 hPa 0,0 l/m² 4,9 km/h (1 Bft) S-SW 0,00 h 0 W/m² 1,2 °C 2,2 °C 6,5 km/h (2 Bft)
02.02.2023 20:00 21,5 °C 3,2 °C 46 % 90 % 1023,8 hPa 0,0 l/m² 5,0 km/h (1 Bft) W-SW 0,00 h 0 W/m² 1,8 °C 2,8 °C 7,7 km/h (2 Bft)
02.02.2023 21:00 21,7 °C 3,5 °C 47 % 90 % 1024,0 hPa 0,0 l/m² 8,8 km/h (2 Bft) SW 0,00 h 0 W/m² 1,9 °C 1,4 °C 12,6 km/h (3 Bft)
02.02.2023 22:00 21,5 °C 3,6 °C 48 % 90 % 1023,8 hPa 0,2 l/m² 16,3 km/h (3 Bft) SW 0,00 h 0 W/m² 2,0 °C -3,3 °C 21,2 km/h (4 Bft)
02.02.2023 23:00 21,3 °C 3,0 °C 48 % 91 % 1023,5 hPa 0,4 l/m² 11,6 km/h (2 Bft) SW 0,00 h 0 W/m² 1,7 °C -1,1 °C 15,0 km/h (3 Bft)
03.02.2023 00:00 21,3 °C 2,7 °C 49 % 92 % 1023,2 hPa 1,4 l/m² 6,7 km/h (2 Bft) S-SW 0,00 h 0 W/m² 1,5 °C 1,5 °C 9,2 km/h (2 Bft)
03.02.2023 01:00 21,3 °C 2,7 °C 49 % 93 % 1022,2 hPa 0,8 l/m² 6,2 km/h (2 Bft) S-SO 0,00 h 0 W/m² 1,6 °C 1,8 °C 9,1 km/h (2 Bft)
03.02.2023 02:00 21,2 °C 2,8 °C 49 % 93 % 1021,2 hPa 0,6 l/m² 4,2 km/h (1 Bft) SW 0,00 h 0 W/m² 1,8 °C 2,8 °C 6,3 km/h (2 Bft)
03.02.2023 03:00 21,2 °C 3,4 °C 49 % 94 % 1020,3 hPa 0,2 l/m² 12,3 km/h (2 Bft) SW 0,00 h 0 W/m² 2,5 °C -0,6 °C 16,5 km/h (3 Bft)
03.02.2023 04:00 21,3 °C 4,7 °C 49 % 94 % 1019,5 hPa 0,0 l/m² 18,6 km/h (3 Bft) SW 0,00 h 0 W/m² 3,8 °C -2,9 °C 24,4 km/h (4 Bft)
03.02.2023 05:00 21,4 °C 5,6 °C 49 % 94 % 1019,0 hPa 0,0 l/m² 17,8 km/h (3 Bft) SW 0,00 h 0 W/m² 4,7 °C -1,5 °C 24,5 km/h (4 Bft)
03.02.2023 06:00 21,4 °C 6,2 °C 49 % 94 % 1018,1 hPa 0,0 l/m² 18,8 km/h (3 Bft) SW 0,00 h 0 W/m² 5,3 °C -1,1 °C 24,4 km/h (4 Bft)
03.02.2023 07:00 21,3 °C 6,7 °C 47 % 92 % 1017,3 hPa 0,0 l/m² 17,2 km/h (3 Bft) SW 0,00 h 0 W/m² 5,5 °C 0,2 °C 23,3 km/h (4 Bft)
03.02.2023 08:00 21,4 °C 7,3 °C 47 % 88 % 1016,6 hPa 0,0 l/m² 20,9 km/h (4 Bft) SW 0,00 h 10 W/m² 5,5 °C -0,4 °C 27,9 km/h (5 Bft)
03.02.2023 09:00 21,4 °C 8,0 °C 47 % 86 % 1015,9 hPa 0,0 l/m² 28,5 km/h (5 Bft) W-SW 0,03 h 30 W/m² 5,7 °C -1,7 °C 37,5 km/h (5 Bft)
03.02.2023 10:00 21,3 °C 8,3 °C 47 % 87 % 1015,3 hPa 0,0 l/m² 32,3 km/h (5 Bft) SW 0,23 h 46 W/m² 6,2 °C -2,1 °C 42,5 km/h (6 Bft)
03.02.2023 11:00 21,4 °C 8,6 °C 47 % 87 % 1014,8 hPa 0,0 l/m² 25,5 km/h (4 Bft) W-SW 0,17 h 40 W/m² 6,5 °C -0,2 °C 33,3 km/h (5 Bft)
03.02.2023 12:00 21,4 °C 9,0 °C 47 % 85 % 1015,1 hPa 0,0 l/m² 29,1 km/h (5 Bft) W 0,35 h 59 W/m² 6,7 °C -0,4 °C 40,1 km/h (6 Bft)
03.02.2023 13:00 21,4 °C 9,4 °C 47 % 81 % 1014,8 hPa 0,0 l/m² 36,1 km/h (5 Bft) W 1,00 h 111 W/m² 6,4 °C -1,3 °C 51,2 km/h (7 Bft)
03.02.2023 14:00 21,4 °C 9,3 °C 47 % 77 % 1015,3 hPa 0,0 l/m² 32,4 km/h (5 Bft) W-NW 0,98 h 117 W/m² 5,6 °C -0,7 °C 48,4 km/h (6 Bft)
03.02.2023 15:00 21,4 °C 9,0 °C 46 % 75 % 1015,7 hPa 0,0 l/m² 31,7 km/h (5 Bft) W 0,82 h 68 W/m² 4,7 °C -1,0 °C 47,9 km/h (6 Bft)
03.02.2023 16:00 21,4 °C 8,6 °C 46 % 72 % 1016,1 hPa 0,0 l/m² 33,7 km/h (5 Bft) W 0,00 h 21 W/m² 3,9 °C -2,0 °C 47,7 km/h (6 Bft)
03.02.2023 17:00 21,4 °C 8,2 °C 47 % 70 % 1016,7 hPa 0,0 l/m² 35,1 km/h (5 Bft) W 0,00 h 0 W/m² 3,0 °C -2,9 °C 48,4 km/h (6 Bft)
03.02.2023 18:00 21,3 °C 7,7 °C 47 % 71 % 1017,3 hPa 0,0 l/m² 34,6 km/h (5 Bft) W 0,00 h 0 W/m² 2,8 °C -3,4 °C 48,3 km/h (6 Bft)
03.02.2023 19:00 21,4 °C 7,2 °C 49 % 73 % 1018,2 hPa 0,0 l/m² 32,1 km/h (5 Bft) W 0,00 h 0 W/m² 2,7 °C -3,7 °C 45,3 km/h (6 Bft)
03.02.2023 20:00 21,6 °C 7,1 °C 51 % 74 % 1018,9 hPa 0,0 l/m² 32,3 km/h (5 Bft) W 0,00 h 0 W/m² 2,8 °C -3,8 °C 47,1 km/h (6 Bft)
03.02.2023 21:00 21,9 °C 6,5 °C 50 % 78 % 1019,0 hPa 0,0 l/m² 39,4 km/h (6 Bft) W 0,00 h 0 W/m² 3,0 °C -6,2 °C 53,7 km/h (7 Bft)
03.02.2023 22:00 21,7 °C 6,3 °C 49 % 80 % 1019,8 hPa 0,0 l/m² 34,9 km/h (5 Bft) W 0,00 h 0 W/m² 3,1 °C -5,5 °C 49,1 km/h (7 Bft)
03.02.2023 23:00 21,3 °C 6,4 °C 50 % 83 % 1021,2 hPa 0,0 l/m² 24,5 km/h (4 Bft) W-NW 0,00 h 0 W/m² 3,7 °C -2,8 °C 37,8 km/h (6 Bft)
04.02.2023 00:00 21,3 °C 6,1 °C 50 % 85 % 1022,5 hPa 0,0 l/m² 21,0 km/h (4 Bft) W-NW 0,00 h 0 W/m² 3,7 °C -2,0 °C 33,4 km/h (5 Bft)
04.02.2023 01:00 21,2 °C 4,2 °C 50 % 84 % 1024,7 hPa 0,0 l/m² 17,2 km/h (3 Bft) N-NW 0,00 h 0 W/m² 1,7 °C -2,9 °C 25,0 km/h (4 Bft)
04.02.2023 02:00 21,2 °C 3,7 °C 50 % 83 % 1026,7 hPa 0,0 l/m² 18,0 km/h (3 Bft) N-NW 0,00 h 0 W/m² 1,0 °C -3,7 °C 25,9 km/h (4 Bft)
04.02.2023 03:00 21,2 °C 2,7 °C 50 % 84 % 1028,5 hPa 0,0 l/m² 8,3 km/h (2 Bft) NW 0,00 h 0 W/m² 0,3 °C 0,8 °C 13,4 km/h (3 Bft)
04.02.2023 04:00 21,2 °C 2,4 °C 50 % 87 % 1029,9 hPa 0,0 l/m² 8,0 km/h (2 Bft) NW 0,00 h 0 W/m² 0,4 °C 0,7 °C 13,0 km/h (3 Bft)
04.02.2023 05:00 21,2 °C 2,3 °C 50 % 88 % 1031,4 hPa 0,0 l/m² 5,8 km/h (2 Bft) NW 0,00 h 0 W/m² 0,4 °C 1,6 °C 9,5 km/h (2 Bft)
04.02.2023 06:00 21,1 °C 1,4 °C 50 % 88 % 1032,6 hPa 0,0 l/m² 4,6 km/h (1 Bft) NW 0,00 h 0 W/m² -0,4 °C 1,4 °C 6,8 km/h (2 Bft)
04.02.2023 07:00 21,1 °C 1,1 °C 50 % 88 % 1033,7 hPa 0,0 l/m² 5,0 km/h (1 Bft) N-NW 0,00 h 9 W/m² -0,6 °C 1,1 °C 7,4 km/h (2 Bft)
04.02.2023 08:00 21,1 °C 1,1 °C 49 % 88 % 1034,6 hPa 0,0 l/m² 4,7 km/h (1 Bft) NW 0,42 h 43 W/m² -0,6 °C 1,1 °C 7,7 km/h (2 Bft)
04.02.2023 09:00 21,9 °C 2,4 °C 49 % 87 % 1035,4 hPa 0,0 l/m² 10,9 km/h (2 Bft) N-NW 1,02 h 149 W/m² 0,4 °C -1,3 °C 17,3 km/h (3 Bft)
04.02.2023 10:00 22,1 °C 3,2 °C 49 % 83 % 1036,3 hPa 0,0 l/m² 12,2 km/h (2 Bft) N-NW 1,00 h 280 W/m² 0,6 °C -1,3 °C 18,7 km/h (3 Bft)
04.02.2023 11:00 22,2 °C 3,6 °C 48 % 81 % 1036,9 hPa 0,0 l/m² 6,7 km/h (2 Bft) NW 1,00 h 198 W/m² 0,8 °C 2,8 °C 11,3 km/h (2 Bft)
04.02.2023 12:00 22,3 °C 4,5 °C 51 % 78 % 1037,2 hPa 0,0 l/m² 6,0 km/h (2 Bft) NW 1,00 h 345 W/m² 1,0 °C 3,8 °C 10,1 km/h (2 Bft)
04.02.2023 13:00 22,3 °C 5,3 °C 51 % 74 % 1037,4 hPa 0,0 l/m² 7,2 km/h (2 Bft) NW 0,97 h 380 W/m² 1,1 °C 4,2 °C 12,1 km/h (2 Bft)
04.02.2023 14:00 22,2 °C 4,8 °C 51 % 73 % 1037,6 hPa 0,0 l/m² 6,4 km/h (2 Bft) NW 0,87 h 175 W/m² 0,4 °C 3,8 °C 10,0 km/h (2 Bft)
04.02.2023 15:00 22,2 °C 4,1 °C 50 % 75 % 1037,9 hPa 0,0 l/m² 4,0 km/h (1 Bft) NW 0,63 h 72 W/m² 0,1 °C 4,0 °C 6,8 km/h (2 Bft)
04.02.2023 16:00 22,1 °C 3,3 °C 50 % 77 % 1038,2 hPa 0,0 l/m² 3,6 km/h (1 Bft) NW 0,00 h 19 W/m² -0,3 °C 3,3 °C 5,7 km/h (2 Bft)
04.02.2023 17:00 22,0 °C 0,9 °C 50 % 83 % 1038,5 hPa 0,0 l/m² 2,3 km/h (1 Bft) NW 0,00 h 5 W/m² -1,7 °C 0,9 °C 3,3 km/h (1 Bft)
04.02.2023 18:00 21,7 °C -0,9 °C 48 % 87 % 1038,5 hPa 0,0 l/m² 0,0 km/h (0 Bft) NW 0,00 h 0 W/m² -2,7 °C -0,9 °C 0,0 km/h (0 Bft)
04.02.2023 19:00 21,7 °C -1,2 °C 49 % 89 % 1039,0 hPa 0,0 l/m² 0,0 km/h (0 Bft) NW 0,00 h 0 W/m² -2,7 °C -1,2 °C 0,0 km/h (0 Bft)
04.02.2023 20:00 21,8 °C -1,6 °C 50 % 91 % 1039,1 hPa 0,0 l/m² 0,4 km/h (0 Bft) NW 0,00 h 0 W/m² -2,9 °C -1,6 °C 0,6 km/h (0 Bft)
04.02.2023 21:00 22,1 °C -1,5 °C 50 % 91 % 1039,6 hPa 0,0 l/m² 0,7 km/h (0 Bft) NW 0,00 h 0 W/m² -2,8 °C -1,5 °C 1,1 km/h (0 Bft)
04.02.2023 22:00 22,5 °C -2,1 °C 51 % 91 % 1040,0 hPa 0,0 l/m² 1,5 km/h (1 Bft) NW 0,00 h 0 W/m² -3,3 °C -2,1 °C 2,4 km/h (1 Bft)
04.02.2023 23:00 22,4 °C -2,1 °C 50 % 91 % 1039,9 hPa 0,0 l/m² 0,5 km/h (0 Bft) NW 0,00 h 0 W/m² -3,3 °C -2,1 °C 1,1 km/h (1 Bft)
05.02.2023 00:00 22,3 °C -3,0 °C 50 % 91 % 1039,9 hPa 0,0 l/m² 0,2 km/h (0 Bft) NW 0,00 h 0 W/m² -4,2 °C -3,0 °C 0,5 km/h (0 Bft)
05.02.2023 01:00 22,3 °C -2,6 °C 50 % 92 % 1040,0 hPa 0,0 l/m² 2,0 km/h (1 Bft) NW 0,00 h 0 W/m² -3,7 °C -2,6 °C 2,8 km/h (1 Bft)
05.02.2023 02:00 22,3 °C -2,3 °C 50 % 92 % 1039,3 hPa 0,0 l/m² 4,8 km/h (1 Bft) O-NO 0,00 h 0 W/m² -3,5 °C -2,5 °C 7,1 km/h (2 Bft)
05.02.2023 03:00 22,2 °C -2,8 °C 49 % 90 % 1038,5 hPa 0,0 l/m² 0,4 km/h (0 Bft) O-NO 0,00 h 0 W/m² -4,2 °C -2,8 °C 0,7 km/h (0 Bft)
05.02.2023 04:00 22,3 °C -3,7 °C 49 % 90 % 1038,0 hPa 0,0 l/m² 0,5 km/h (0 Bft) O-NO 0,00 h 0 W/m² -5,1 °C -3,7 °C 1,2 km/h (1 Bft)
05.02.2023 05:00 22,2 °C -4,3 °C 49 % 91 % 1038,1 hPa 0,0 l/m² 0,6 km/h (0 Bft) O-NO 0,00 h 0 W/m² -5,6 °C -4,3 °C 1,1 km/h (1 Bft)
05.02.2023 06:00 21,9 °C -4,0 °C 49 % 91 % 1038,0 hPa 0,0 l/m² 1,4 km/h (1 Bft) O-NO 0,00 h 0 W/m² -5,3 °C -4,0 °C 2,0 km/h (1 Bft)
05.02.2023 07:00 21,8 °C -3,9 °C 49 % 91 % 1037,7 hPa 0,0 l/m² 1,2 km/h (1 Bft) N 0,00 h 9 W/m² -5,1 °C -3,9 °C 1,8 km/h (1 Bft)
05.02.2023 08:00 22,0 °C -2,8 °C 49 % 92 % 1037,5 hPa 0,0 l/m² 8,5 km/h (2 Bft) O-NO 0,48 h 48 W/m² -3,9 °C -5,3 °C 11,3 km/h (2 Bft)
05.02.2023 09:00 22,4 °C -1,1 °C 51 % 89 % 1036,9 hPa 0,0 l/m² 8,0 km/h (2 Bft) O 1,00 h 105 W/m² -2,6 °C -2,8 °C 10,7 km/h (2 Bft)
05.02.2023 10:00 22,6 °C 0,0 °C 50 % 87 % 1036,4 hPa 0,2 l/m² 9,0 km/h (2 Bft) O 1,00 h 151 W/m² -1,8 °C -2,6 °C 12,1 km/h (2 Bft)
05.02.2023 11:00 22,5 °C 0,8 °C 48 % 86 % 1036,1 hPa 0,0 l/m² 8,5 km/h (2 Bft) O 1,02 h 187 W/m² -1,3 °C -1,3 °C 11,7 km/h (2 Bft)
05.02.2023 12:00 22,4 °C 1,4 °C 48 % 83 % 1035,7 hPa 0,0 l/m² 9,4 km/h (2 Bft) O-SO 0,98 h 216 W/m² -1,1 °C -1,3 °C 12,9 km/h (3 Bft)
05.02.2023 13:00 22,5 °C 1,9 °C 48 % 81 % 1035,7 hPa 0,0 l/m² 7,5 km/h (2 Bft) O 1,00 h 203 W/m² -1,0 °C 0,7 °C 10,9 km/h (2 Bft)
05.02.2023 14:00 22,3 °C 2,3 °C 48 % 80 % 1035,7 hPa 0,0 l/m² 9,1 km/h (2 Bft) O 1,00 h 150 W/m² -0,8 °C -0,1 °C 12,9 km/h (3 Bft)
05.02.2023 15:00 22,2 °C 2,2 °C 49 % 79 % 1035,9 hPa 0,0 l/m² 11,1 km/h (2 Bft) O 1,00 h 119 W/m² -1,1 °C -1,8 °C 14,8 km/h (3 Bft)
05.02.2023 16:00 22,4 °C 1,4 °C 50 % 81 % 1036,1 hPa 0,0 l/m² 8,3 km/h (2 Bft) O-NO 0,18 h 33 W/m² -1,6 °C -0,6 °C 11,6 km/h (2 Bft)
05.02.2023 17:00 22,3 °C 0,3 °C 50 % 82 % 1037,5 hPa 0,0 l/m² 3,5 km/h (1 Bft) O-NO 0,00 h 6 W/m² -2,4 °C 0,3 °C 5,6 km/h (2 Bft)
05.02.2023 18:00 22,2 °C -1,0 °C 50 % 85 % 1037,8 hPa 0,0 l/m² 2,3 km/h (1 Bft) O-NO 0,00 h 0 W/m² -3,1 °C -1,0 °C 3,5 km/h (1 Bft)
05.02.2023 19:00 22,2 °C -2,1 °C 51 % 86 % 1038,3 hPa 0,0 l/m² 0,0 km/h (0 Bft) O-NO 0,00 h 0 W/m² -4,1 °C -2,1 °C 0,1 km/h (0 Bft)
05.02.2023 20:00 22,3 °C -3,2 °C 54 % 87 % 1038,7 hPa 0,0 l/m² 0,0 km/h (0 Bft) O-NO 0,00 h 0 W/m² -5,1 °C -3,2 °C 0,1 km/h (0 Bft)
05.02.2023 21:00 22,5 °C -4,0 °C 54 % 89 % 1039,0 hPa 0,0 l/m² 0,1 km/h (0 Bft) O-NO 0,00 h 0 W/m² -5,6 °C -4,0 °C 0,3 km/h (0 Bft)
05.02.2023 22:00 22,2 °C -4,7 °C 51 % 89 % 1039,7 hPa 0,0 l/m² 0,1 km/h (0 Bft) N 0,00 h 0 W/m² -6,2 °C -4,7 °C 0,2 km/h (0 Bft)
05.02.2023 23:00 22,1 °C -4,9 °C 51 % 90 % 1040,1 hPa 0,0 l/m² 0,3 km/h (0 Bft) N 0,00 h 0 W/m² -6,3 °C -4,9 °C 0,5 km/h (0 Bft)
Min-Datum _ 04.02.23 05.02.23 02.02.23 03.02.23 30.01.23 - 05.02.23 - - - 05.02.23 30.01.23 05.02.23
_ Min-Zeit 07:03 23:04 18:16 17:09 14:01 - 23:00 - - - 23:04 00:14 23:00
Minimum _ 21,0 °C -5,0 °C 42 % 69 % 1008,3 hPa - 0,0 km/h (0 Bft) - - - -6,5 °C -13,1 °C 0,0 km/h (0 Bft)
Max-Datum _ 30.01.23 03.02.23 05.02.23 03.02.23 05.02.23 01.02.23 03.02.23 - 04.02.23 04.02.23 03.02.23 04.02.23 01.02.23
_ Max-Zeit 14:01 13:11 20:48 06:00 23:52 16:39 16:00 - 08:49 12:09 12:08 13:47 16:39
Maximum _ 22,7 °C 9,5 °C 57 % 94 % 1040,3 hPa 1,8 l/m² 48,2 km/h
W (6 Bft)
- 0,10 h 540 W/m² 6,8 °C 5,9 °C 78,9 km/h
W-SW (9 Bft)
Durchschnitt _ 21,7 °C 3,4 °C 48 % 84 % 1021,7 hPa #8,2 l/m² 16,6 km/h (3 Bft) SW #41:19 h 47 W/m² 1,0 °C -2,7 °C 23,2 km/h (4 Bft)
© 2009 Mathias Hoßbach